Flag for Malaysia Weather past 2 weeks in Kuching, Malaysia

Now
77 °F

Thunderstorms. Partly cloudy.


Feels Like: 78 °F
Forecast: 72 / 88 °F
Wind: 3 mph from Southwest

Location: Kuching Airport

Current Time: Oct 25, 2014 at 3:07:06 AM

Latest Report: Oct 25, 2014 at 2:30 AM


Visibility: 5 mi

Pressure: 29.86 "Hg

Humidity: 89%

Dew point: 73 °F

Location of KuchingLocation

Historic Weather in Kuching — Graph

°F

Kuching temperature yesterday

Maximum temperature yesterday: 88 °F (at 1:30 PM)
Minimum temperature yesterday: 77 °F (at 12:30 AM)
Average temperature yesterday: 80 °F

Past Weeks' High & Low Weather Summary

 TemperatureHumidityPressure
High93 °F (Oct 13, 1:30 PM)100% (Oct 12, 5:00 AM)29.92 "Hg (Oct 12, 5:00 AM)
Low73 °F (Oct 11, 4:00 PM)49% (Oct 13, 1:30 PM)29.68 "Hg (Oct 17, 4:30 PM)
Average80 °F83%29.83 "Hg
* Reported Oct 10 1:00 AM — Oct 25 1:30 AM, Kuching, Weather by CustomWeather, © 2014

Note: Actual official high and low records may vary slightly from our data, if they occured in-between our weather recording intervals... More about our weather records

Advertising

Kuching weather history for previous 24 hours

 ConditionsComfort  
Time TempWeatherWind HumidityBarometerVisibility
1:30 AM
Oct 25
77 °FPartly cloudy.5 mph89%29.86 "Hg5 mi
1:00 AM77 °FPassing clouds.2 mph89%29.86 "Hg5 mi
12:30 AM77 °FPartly cloudy.2 mph89%29.86 "Hg5 mi
12:00 AM77 °FPartly cloudy.3 mph94%29.86 "HgN/A
11:30 PM
Oct 24
77 °FPartly cloudy.No wind94%29.86 "HgN/A
11:00 PM77 °FPartly cloudy.1 mph94%29.86 "HgN/A
10:30 PM77 °FPartly cloudy.2 mph94%29.86 "HgN/A
10:00 PM77 °FPartly cloudy.2 mph94%29.86 "HgN/A
9:30 PM77 °FPartly cloudy.2 mph89%29.86 "HgN/A
9:00 PM77 °FPartly cloudy.2 mph94%29.86 "HgN/A
8:30 PM77 °FPartly cloudy.2 mph94%29.86 "HgN/A
8:00 PM79 °FPartly cloudy.3 mph89%29.86 "HgN/A
7:30 PM79 °FPartly cloudy.5 mph89%29.83 "HgN/A
7:00 PM79 °FPassing clouds.3 mph89%29.83 "HgN/A
6:30 PM79 °FPassing clouds.2 mph84%29.80 "HgN/A
6:00 PM81 °FBroken clouds.5 mph79%29.80 "HgN/A
5:30 PM81 °FScattered showers. Broken clouds.7 mph79%29.80 "Hg4 mi
5:00 PM82 °FScattered showers. Broken clouds.7 mph79%29.80 "Hg4 mi
4:30 PM82 °FScattered showers. Broken clouds.10 mph84%29.80 "Hg4 mi
4:00 PM86 °FScattered showers. Broken clouds.6 mph70%29.77 "Hg4 mi
3:30 PM86 °FScattered showers. Broken clouds.9 mph70%29.77 "Hg4 mi
3:00 PM88 °FBroken clouds.12 mph66%29.77 "HgN/A
2:30 PM88 °FBroken clouds.10 mph66%29.80 "HgN/A
2:00 PM88 °FBroken clouds.10 mph66%29.80 "HgN/A
1:30 PM88 °FBroken clouds.6 mph66%29.83 "HgN/A
1:00 PM86 °FBroken clouds.3 mph70%29.83 "HgN/A
12:30 PM86 °FBroken clouds.5 mph70%29.86 "HgN/A
12:00 PM84 °FBroken clouds.5 mph74%29.86 "HgN/A
11:30 AM82 °FBroken clouds.6 mph79%29.89 "HgN/A
10:30 AM84 °FBroken clouds.8 mph74%29.89 "HgN/A
10:00 AM84 °FBroken clouds.2 mph74%29.89 "HgN/A
9:30 AM82 °FBroken clouds.2 mph79%29.92 "HgN/A
9:00 AM81 °FBroken clouds.No wind84%29.92 "Hg5 mi
8:30 AM81 °FBroken clouds.No wind84%29.89 "Hg5 mi
8:00 AM79 °FBroken clouds.1 mph89%29.89 "Hg5 mi
7:30 AM77 °FBroken clouds.2 mph94%29.89 "Hg5 mi
7:00 AM77 °FBroken clouds.1 mph94%29.86 "HgN/A
6:30 AM77 °FBroken clouds.2 mph89%29.86 "HgN/A
6:00 AM77 °FPartly cloudy.3 mph89%29.83 "HgN/A
5:30 AM77 °FPartly cloudy.No wind89%29.83 "HgN/A
5:00 AM77 °FPartly cloudy.3 mph89%29.83 "HgN/A
4:30 AM77 °FPartly cloudy.No wind89%29.83 "HgN/A
4:00 AM77 °FPartly cloudy.No wind94%29.83 "HgN/A
3:30 AM77 °FLight rain. Partly cloudy.1 mph94%29.83 "HgN/A
3:00 AM77 °FLight rain. Partly cloudy.2 mph94%29.83 "HgN/A
Weather by CustomWeather, © 2014

See weather overviewHow to use our weather pages